TimeCDT,TemperatureF,Dew PointF,Humidity,Sea Level PressureIn,VisibilityMPH,Wind Direction,Wind SpeedMPH,Gust SpeedMPH,PrecipitationIn,Events,Conditions,WindDirDegrees,DateUTC
12:45 AM,73.4,69.8,88,29.84,8.0,East,8.1,-,N/A,,Overcast,80,2013-04-03 05:45:00
12:51 AM,73.0,69.1,87,29.83,9.0,East,8.1,-,N/A,,Overcast,90,2013-04-03 05:51:00
1:38 AM,73.4,69.8,88,29.86,9.0,NE,10.4,-,N/A,,Overcast,40,2013-04-03 06:38:00
1:51 AM,73.0,69.1,87,29.85,9.0,NNE,15.0,-,N/A,,Overcast,30,2013-04-03 06:51:00
2:51 AM,73.0,69.1,87,29.85,8.0,NE,16.1,25.3,0.00,Rain,Light Rain,40,2013-04-03 07:51:00
3:10 AM,69.8,62.6,78,29.84,8.0,NNE,18.4,32.2,0.00,Rain,Light Rain,30,2013-04-03 08:10:00
3:16 AM,69.8,64.4,83,29.84,9.0,NE,19.6,25.3,0.00,Rain,Light Rain,50,2013-04-03 08:16:00
3:47 AM,69.8,62.6,78,29.82,9.0,ENE,11.5,-,0.01,,Mostly Cloudy,60,2013-04-03 08:47:00
3:51 AM,70.0,61.0,73,29.82,9.0,NE,10.4,-,0.01,,Mostly Cloudy,40,2013-04-03 08:51:00
4:51 AM,69.1,60.1,73,29.81,9.0,ENE,6.9,-,N/A,,Partly Cloudy,60,2013-04-03 09:51:00
5:51 AM,66.9,57.9,73,29.81,10.0,NE,4.6,-,N/A,,Partly Cloudy,50,2013-04-03 10:51:00
6:51 AM,66.9,59.0,76,29.86,10.0,North,12.7,-,N/A,,Scattered Clouds,10,2013-04-03 11:51:00
7:51 AM,64.9,57.9,78,29.88,10.0,North,16.1,-,N/A,,Mostly Cloudy,10,2013-04-03 12:51:00
8:51 AM,66.0,57.9,75,29.91,10.0,NNE,17.3,-,N/A,,Mostly Cloudy,20,2013-04-03 13:51:00
9:51 AM,66.0,57.9,75,29.92,10.0,NNE,15.0,-,N/A,,Mostly Cloudy,20,2013-04-03 14:51:00
10:51 AM,68.0,57.9,70,29.94,10.0,NNE,15.0,23.0,N/A,,Mostly Cloudy,30,2013-04-03 15:51:00
11:43 AM,69.8,57.2,64,29.94,10.0,NE,13.8,-,N/A,,Mostly Cloudy,50,2013-04-03 16:43:00
11:51 AM,70.0,59.0,68,29.94,10.0,NE,10.4,-,N/A,,Mostly Cloudy,50,2013-04-03 16:51:00
12:51 PM,75.9,59.0,56,29.91,10.0,NE,16.1,-,N/A,,Mostly Cloudy,50,2013-04-03 17:51:00
12:59 PM,75.2,59.0,57,29.91,10.0,NNE,13.8,-,N/A,,Mostly Cloudy,20,2013-04-03 17:59:00
1:51 PM,78.1,57.9,50,29.92,10.0,North,12.7,-,N/A,,Mostly Cloudy,360,2013-04-03 18:51:00
2:51 PM,78.1,57.9,50,29.91,10.0,North,16.1,21.9,N/A,,Mostly Cloudy,360,2013-04-03 19:51:00
3:51 PM,77.0,57.9,52,29.90,10.0,North,23.0,27.6,N/A,,Mostly Cloudy,350,2013-04-03 20:51:00
4:51 PM,75.9,57.0,52,29.91,10.0,North,12.7,-,N/A,,Mostly Cloudy,10,2013-04-03 21:51:00
5:51 PM,73.0,55.9,55,29.91,10.0,NNW,23.0,31.1,N/A,,Mostly Cloudy,330,2013-04-03 22:51:00
6:40 PM,66.2,53.6,64,29.96,10.0,NNW,25.3,31.1,N/A,,Mostly Cloudy,340,2013-04-03 23:40:00
6:51 PM,66.0,54.0,65,29.96,10.0,North,25.3,33.4,N/A,,Overcast,360,2013-04-03 23:51:00
7:51 PM,63.0,52.0,67,29.99,10.0,North,20.7,26.5,N/A,,Overcast,360,2013-04-04 00:51:00
8:45 PM,62.6,51.8,68,30.03,10.0,North,17.3,-,N/A,,Overcast,360,2013-04-04 01:45:00
8:51 PM,62.1,51.1,67,30.04,10.0,North,16.1,-,0.00,Rain,Light Rain,360,2013-04-04 01:51:00
9:51 PM,61.0,50.0,67,30.07,10.0,North,19.6,25.3,0.00,,Mostly Cloudy,360,2013-04-04 02:51:00
10:51 PM,59.0,48.9,69,30.10,10.0,North,21.9,27.6,N/A,,Mostly Cloudy,10,2013-04-04 03:51:00
11:44 PM,57.2,48.2,72,30.11,10.0,North,15.0,-,N/A,,Mostly Cloudy,10,2013-04-04 04:44:00
11:51 PM,57.9,48.9,72,30.12,10.0,North,17.3,24.2,N/A,,Mostly Cloudy,10,2013-04-04 04:51:00